Hanford, CA

5:22 AM PST on November 23, 2017 (GMT -0800)
Hanford Municipal

Weather History for KHJO - January, 2013

Change the Weather History Date:

Sunday, January 6, 2013

  Actual Average Record
Temperature  
Mean Temperature 47 °F 44 °F  
Max Temperature 52 °F 53 °F 66 °F (2014)
Min Temperature 41 °F 36 °F 25 °F (2007)
Degree Days  
Heating Degree Days 18    
Month to date heating degree days 134  
Since 1 July heating degree days 1072  
Cooling Degree Days 0    
Month to date cooling degree days 0  
Year to date cooling degree days 0  
Moisture  
Dew Point 43 °F    
Average Humidity 84    
Maximum Humidity 96    
Minimum Humidity 71    
Precipitation  
Precipitation 0.12 in 0.09 in 0.46 in (1959)
Month to date precipitation 0.13 0.58  
Year to date precipitation 0.13 0.58  
Since 1 July precipitation 2.13  
Snow  
Snow 0.00 in - - ()
Month to date snowfall 0.0  
Since 1 July snowfall 0.0  
Snow Depth 0.00 in    
Sea Level Pressure  
Sea Level Pressure 30.14 in    
Wind  
Wind Speed 8 mph (WNW)    
Max Wind Speed 16 mph    
Max Gust Speed 21 mph    
Visibility 9 miles    
Events Rain    
T = Trace of Precipitation, MM = Missing Value Source: NWS Daily Summary

Daily Weather History Graph

Daily Weather History Graph

Search for Another Location

Airport or City:

Trip Planner

Search our weather history database for the weather conditions in past years. The results will help you decide how hot, cold, wet, or windy it might be!

Date:

Astronomy

Jan. 06, 2013 Rise Set
Actual Time 7:10 AM PST 4:58 PM PST
Civil Twilight 6:42 AM PST 5:27 PM PST
Nautical Twilight 6:10 AM PST 5:59 PM PST
Astronomical Twilight 5:38 AM PST 6:30 PM PST
Moon 1:34 AM PST (1/6) 12:26 PM PST (1/6)
Length of Visible Light 10h 45m
Length of Day
9h 48m
Waning Crescent, 32% of the Moon is Illuminated
Jan 6
Waning Crescent
Jan 11
New
Jan 18
First Quarter
Jan 26
Full
Feb 3
Last Quarter

Hourly Weather History & Observations

Time (PST) Temp. Windchill Dew Point Humidity Pressure Visibility Wind Dir Wind Speed Gust Speed Precip Events Conditions
12:53 AM 48.0 °F - 45.0 °F 89% 30.12 in 8.0 mi South 6.9 mph - 0.08 in Rain Light Rain
2:53 AM 46.0 °F 41.9 °F 44.1 °F 93% 30.14 in 10.0 mi SSE 8.1 mph - 0.01 in   Partly Cloudy
3:53 AM 45.0 °F 41.2 °F 42.1 °F 90% 30.14 in 10.0 mi SE 6.9 mph - N/A   Clear
4:53 AM 46.0 °F 41.0 °F 43.0 °F 89% 30.14 in 10.0 mi SE 10.4 mph - N/A   Scattered Clouds
5:53 AM 46.0 °F 41.0 °F 43.0 °F 89% 30.14 in 10.0 mi SSE 10.4 mph - N/A   Overcast
6:53 AM 46.0 °F 41.0 °F 43.0 °F 89% 30.14 in 10.0 mi SSE 10.4 mph - N/A   Overcast
7:53 AM 46.0 °F 42.5 °F 43.0 °F 89% 30.14 in 10.0 mi SSE 6.9 mph - N/A   Overcast
8:53 AM 48.0 °F - 43.0 °F 83% 30.14 in 10.0 mi SSE 9.2 mph - N/A   Scattered Clouds
9:53 AM 50.0 °F - 44.1 °F 80% 30.18 in 10.0 mi SSE 10.4 mph - N/A   Overcast
10:53 AM 51.1 °F - 44.1 °F 77% 30.16 in 10.0 mi SE 6.9 mph - N/A   Mostly Cloudy
11:32 AM 51.8 °F - 42.8 °F 71% 30.13 in 10.0 mi SSE 6.9 mph - N/A   Overcast
11:53 AM 50.0 °F - 43.0 °F 77% 30.13 in 10.0 mi ESE 6.9 mph - N/A   Overcast
12:53 PM 50.0 °F - 43.0 °F 77% 30.12 in 10.0 mi East 3.5 mph - N/A   Overcast
1:42 PM 50.0 °F - 44.6 °F 82% 30.10 in 10.0 mi Calm Calm - 0.00 in   Overcast
1:53 PM 51.1 °F - 43.0 °F 74% 30.11 in 10.0 mi Calm Calm - 0.00 in   Overcast
2:53 PM 51.1 °F - 43.0 °F 74% 30.11 in 10.0 mi NW 3.5 mph - N/A   Overcast
3:53 PM 50.0 °F - 44.1 °F 80% 30.12 in 10.0 mi WNW 8.1 mph - N/A   Overcast
4:53 PM 48.0 °F - 43.0 °F 83% 30.11 in 10.0 mi NNW 8.1 mph - N/A   Overcast
5:53 PM 44.1 °F 40.1 °F 42.1 °F 93% 30.12 in 8.0 mi NW 6.9 mph - N/A   Clear
6:23 PM 46.4 °F 42.4 °F 42.8 °F 87% 30.12 in 10.0 mi NNW 8.1 mph - N/A   Mostly Cloudy
7:42 PM 44.6 °F 39.2 °F 42.8 °F 93% 30.12 in 10.0 mi WNW 10.4 mph - N/A   Partly Cloudy
7:53 PM 45.0 °F 39.3 °F 42.1 °F 90% 30.14 in 10.0 mi WNW 11.5 mph - N/A   Partly Cloudy
8:53 PM 43.0 °F 37.2 °F 41.0 °F 93% 30.16 in 8.0 mi NW 10.4 mph - N/A   Partly Cloudy
9:53 PM 42.1 °F 37.1 °F 41.0 °F 96% 30.18 in 6.0 mi NW 8.1 mph - N/A   Mostly Cloudy
10:53 PM 44.1 °F 40.1 °F 42.1 °F 93% 30.19 in 6.0 mi NNW 6.9 mph - N/A   Overcast
11:01 PM 44.6 °F 40.7 °F 42.8 °F 93% 30.18 in 6.0 mi NW 6.9 mph - N/A   Overcast
11:35 PM 44.6 °F 43.1 °F 42.8 °F 93% 30.17 in 5.0 mi NNW 3.5 mph - N/A   Overcast
11:48 PM 44.6 °F 43.1 °F 42.8 °F 93% 30.16 in 5.0 mi North 3.5 mph - N/A   Overcast
11:53 PM 44.1 °F 41.5 °F 42.1 °F 93% 30.17 in 5.0 mi NNW 4.6 mph - N/A   Overcast